VSV804 LKPR-UACC

Flight info

Callsign VSV804
Flight time 5h 2m
Altitude 35000
Route N0450F350 ARTUP T871 LAGAR N871 KUKOP N869 RATIN L999 AGLAN M864 INKEB L94 UNORO T788 NAMUD L994 DIDAL
Aircraft B38M/M-SDE1FGHILORVWXY/HB1

Departure

Time 2026-04-21 08:43
Airport Václav Havel Airport Prague (LKPR)

Arrival

Time 2026-04-21 13:46
Airport Nursultan Nazarbayev International Airport (UACC)
Time Latitude Longitude Altitude Speed Heading
2026-04-21 07:58 50.11009 14.26983 1176 ft 0 kts 244°
2026-04-21 08:27 50.11011 14.26991 1176 ft 2 kts 244°
2026-04-21 08:28 50.11020 14.27019 1176 ft 3 kts 244°
2026-04-21 08:28 50.11028 14.27045 1176 ft 2 kts 244°
2026-04-21 08:28 50.11034 14.27070 1176 ft 3 kts 268°
2026-04-21 08:28 50.11030 14.27093 1171 ft 3 kts 316°
2026-04-21 08:29 50.11014 14.27109 1176 ft 2 kts 334°
2026-04-21 08:29 50.11007 14.27115 1176 ft 0 kts 334°
2026-04-21 08:32 50.11011 14.27112 1176 ft 2 kts 334°
2026-04-21 08:32 50.11046 14.27086 1175 ft 9 kts 334°
2026-04-21 08:32 50.11131 14.27023 1179 ft 17 kts 334°
2026-04-21 08:33 50.11171 14.26893 1174 ft 15 kts 246°
2026-04-21 08:33 50.11126 14.26739 1174 ft 16 kts 245°
2026-04-21 08:33 50.11076 14.26576 1172 ft 17 kts 244°
2026-04-21 08:33 50.11027 14.26493 1174 ft 7 kts 214°
2026-04-21 08:34 50.10985 14.26450 1172 ft 8 kts 214°
2026-04-21 08:34 50.10936 14.26399 1176 ft 9 kts 214°
2026-04-21 08:34 50.10881 14.26340 1172 ft 10 kts 216°
2026-04-21 08:34 50.10820 14.26271 1176 ft 11 kts 216°
2026-04-21 08:35 50.10754 14.26204 1174 ft 12 kts 213°
2026-04-21 08:35 50.10683 14.26128 1174 ft 13 kts 215°
2026-04-21 08:35 50.10607 14.26048 1172 ft 13 kts 211°
2026-04-21 08:35 50.10529 14.25981 1176 ft 12 kts 187°
2026-04-21 08:36 50.10465 14.26049 1178 ft 12 kts 125°
2026-04-21 08:36 50.10414 14.26155 1177 ft 13 kts 127°
2026-04-21 08:36 50.10359 14.26268 1175 ft 14 kts 128°
2026-04-21 08:36 50.10298 14.26395 1179 ft 16 kts 128°
2026-04-21 08:37 50.10225 14.26544 1176 ft 18 kts 127°
2026-04-21 08:37 50.10150 14.26700 1182 ft 17 kts 127°
2026-04-21 08:37 50.10085 14.26835 1189 ft 13 kts 128°
2026-04-21 08:37 50.10042 14.26925 1195 ft 8 kts 126°
2026-04-21 08:38 50.10009 14.26991 1198 ft 9 kts 127°
2026-04-21 08:38 50.09955 14.27102 1201 ft 17 kts 127°
2026-04-21 08:38 50.09882 14.27255 1204 ft 18 kts 127°
2026-04-21 08:38 50.09800 14.27395 1207 ft 17 kts 135°
2026-04-21 08:39 50.09716 14.27521 1208 ft 17 kts 135°
2026-04-21 08:39 50.09637 14.27646 1212 ft 15 kts 136°
2026-04-21 08:39 50.09564 14.27754 1214 ft 14 kts 134°
2026-04-21 08:39 50.09496 14.27861 1216 ft 13 kts 135°
2026-04-21 08:40 50.09434 14.27955 1218 ft 13 kts 135°
2026-04-21 08:40 50.09365 14.28060 1217 ft 15 kts 135°
2026-04-21 08:40 50.09292 14.28174 1217 ft 15 kts 136°
2026-04-21 08:40 50.09209 14.28282 1214 ft 13 kts 161°
2026-04-21 08:41 50.09152 14.28268 1214 ft 8 kts 207°
2026-04-21 08:41 50.09106 14.28216 1213 ft 9 kts 218°
2026-04-21 08:41 50.09063 14.28145 1211 ft 5 kts 265°
2026-04-21 08:41 50.09073 14.28112 1210 ft 0 kts 304°
2026-04-21 08:42 50.09074 14.28109 1210 ft 1 kts 304°
2026-04-21 08:42 50.09078 14.28100 1210 ft 1 kts 304°
2026-04-21 08:42 50.09150 14.27950 1214 ft 48 kts 307°
2026-04-21 08:42 50.09498 14.27230 1208 ft 118 kts 306°
2026-04-21 08:43 50.10119 14.25956 1199 ft 174 kts 307°
2026-04-21 08:43 50.10899 14.24363 1683 ft 188 kts 309°
2026-04-21 08:43 50.11652 14.22791 2771 ft 178 kts 311°
2026-04-21 08:43 50.12423 14.21188 3312 ft 195 kts 312°
2026-04-21 08:44 50.13294 14.19392 3661 ft 220 kts 311°
2026-04-21 08:44 50.14258 14.17379 4104 ft 244 kts 310°
2026-04-21 08:44 50.15306 14.15193 4715 ft 258 kts 309°
2026-04-21 08:44 50.16412 14.12891 5303 ft 273 kts 309°
2026-04-21 08:45 50.17560 14.10504 6200 ft 274 kts 310°
2026-04-21 08:45 50.18708 14.08113 7102 ft 278 kts 310°
2026-04-21 08:45 50.19878 14.05675 7950 ft 282 kts 311°
2026-04-21 08:45 50.21330 14.03704 8807 ft 275 kts 339°
2026-04-21 08:46 50.23179 14.03162 9598 ft 272 kts
2026-04-21 08:46 50.24978 14.03857 10366 ft 270 kts 27°
2026-04-21 08:46 50.26545 14.05558 10814 ft 284 kts 48°
2026-04-21 08:46 50.27819 14.08042 11137 ft 303 kts 52°
2026-04-21 08:47 50.29194 14.10687 11426 ft 322 kts 51°
2026-04-21 08:47 50.30629 14.13460 11884 ft 333 kts 51°
2026-04-21 08:47 50.32076 14.16295 12639 ft 335 kts 52°
2026-04-21 08:47 50.33530 14.19180 13376 ft 338 kts 52°
2026-04-21 08:48 50.34973 14.22069 14014 ft 343 kts 52°
2026-04-21 08:48 50.36448 14.25023 14649 ft 346 kts 52°
2026-04-21 08:48 50.37932 14.28014 15315 ft 349 kts 52°
2026-04-21 08:48 50.39434 14.31039 15933 ft 353 kts 52°
2026-04-21 08:49 50.40944 14.34087 16628 ft 355 kts 52°
2026-04-21 08:49 50.42466 14.37172 17207 ft 360 kts 51°
2026-04-21 08:49 50.44009 14.40288 17879 ft 362 kts 52°
2026-04-21 08:49 50.45557 14.43431 18496 ft 366 kts 52°
2026-04-21 08:50 50.47125 14.46611 18991 ft 370 kts 52°
2026-04-21 08:50 50.48683 14.49779 19552 ft 372 kts 52°
2026-04-21 08:50 50.50292 14.53062 20005 ft 377 kts 51°
2026-04-21 08:50 50.51881 14.56296 20502 ft 380 kts 51°
2026-04-21 08:51 50.53501 14.59610 20994 ft 384 kts 51°
2026-04-21 08:51 50.55139 14.62957 21456 ft 388 kts 51°
2026-04-21 08:51 50.56790 14.66339 21959 ft 390 kts 51°
2026-04-21 08:51 50.58451 14.69748 22385 ft 395 kts 51°
2026-04-21 08:52 50.60126 14.73187 22908 ft 397 kts 51°
2026-04-21 08:52 50.61813 14.76656 23306 ft 402 kts 51°
2026-04-21 08:52 50.63515 14.80160 23791 ft 404 kts 51°
2026-04-21 08:52 50.65223 14.83685 24240 ft 405 kts 51°
2026-04-21 08:53 50.66936 14.87223 24611 ft 407 kts 51°
2026-04-21 08:53 50.68533 14.90931 24956 ft 412 kts 63°
2026-04-21 08:53 50.69582 14.95146 25341 ft 414 kts 66°
2026-04-21 08:53 50.70631 14.99389 25676 ft 417 kts 67°
2026-04-21 08:54 50.71677 15.03677 26005 ft 420 kts 67°
2026-04-21 08:54 50.72717 15.08003 26400 ft 422 kts 67°
2026-04-21 08:54 50.73744 15.12306 26727 ft 426 kts 68°
2026-04-21 08:54 50.74790 15.16696 27046 ft 429 kts 68°
2026-04-21 08:55 50.75845 15.21134 27325 ft 432 kts 68°
2026-04-21 08:55 50.76903 15.25597 27683 ft 434 kts 68°
2026-04-21 08:55 50.77964 15.30084 27991 ft 437 kts 68°
2026-04-21 08:55 50.79031 15.34600 28314 ft 439 kts 68°
2026-04-21 08:56 50.80171 15.39080 28763 ft 437 kts 66°
2026-04-21 08:56 50.81320 15.43510 29242 ft 436 kts 65°
2026-04-21 08:56 50.82467 15.47973 29527 ft 439 kts 65°
2026-04-21 08:56 50.83617 15.52470 29755 ft 443 kts 66°
2026-04-21 08:57 50.84768 15.56983 30177 ft 442 kts 66°
2026-04-21 08:57 50.85922 15.61516 30340 ft 447 kts 66°
2026-04-21 08:57 50.87083 15.66086 30628 ft 447 kts 65°
2026-04-21 08:57 50.88246 15.70667 30850 ft 450 kts 66°
2026-04-21 08:58 50.89411 15.75276 31093 ft 451 kts 66°
2026-04-21 08:58 50.90577 15.79895 31352 ft 452 kts 66°
2026-04-21 08:58 50.91745 15.84532 31669 ft 452 kts 65°
2026-04-21 08:58 50.92896 15.89106 31969 ft 452 kts 66°
2026-04-21 08:59 50.94059 15.93743 32239 ft 452 kts 65°
2026-04-21 08:59 50.95221 15.98372 32571 ft 452 kts 67°
2026-04-21 08:59 50.96375 16.02992 32957 ft 449 kts 67°
2026-04-21 08:59 50.97526 16.07596 33270 ft 449 kts 67°
2026-04-21 09:00 50.98679 16.12213 33528 ft 449 kts 67°
2026-04-21 09:00 50.99827 16.16820 33821 ft 449 kts 67°
2026-04-21 09:00 51.00973 16.21425 34088 ft 449 kts 67°
2026-04-21 09:00 51.02119 16.26043 34318 ft 449 kts 67°
2026-04-21 09:01 51.03264 16.30662 34520 ft 450 kts 67°
2026-04-21 09:01 51.04409 16.35296 34686 ft 451 kts 67°
2026-04-21 09:01 51.05555 16.39941 34872 ft 451 kts 67°
2026-04-21 09:01 51.06684 16.44527 35048 ft 451 kts 67°
2026-04-21 09:02 51.07843 16.49242 35207 ft 452 kts 67°
2026-04-21 09:02 51.10113 16.58512 35217 ft 451 kts 67°
2026-04-21 09:03 51.13504 16.72430 35222 ft 448 kts 67°
2026-04-21 09:03 51.15750 16.81697 35215 ft 448 kts 68°
2026-04-21 09:04 51.17990 16.90972 35184 ft 448 kts 68°
2026-04-21 09:04 51.20221 17.00269 35185 ft 448 kts 68°
2026-04-21 09:05 51.22444 17.09568 35199 ft 448 kts 68°
2026-04-21 09:05 51.24657 17.18867 35200 ft 448 kts 68°
2026-04-21 09:06 51.26860 17.28159 35205 ft 446 kts 68°
2026-04-21 09:06 51.29033 17.37367 35219 ft 446 kts 68°
2026-04-21 09:07 51.31214 17.46645 35224 ft 446 kts 68°
2026-04-21 09:07 51.33394 17.55959 35219 ft 447 kts 68°
2026-04-21 09:08 51.35566 17.65279 35222 ft 447 kts 68°
2026-04-21 09:08 51.37729 17.74603 35215 ft 447 kts 68°
2026-04-21 09:09 51.39522 17.82360 35214 ft 447 kts 68°
2026-04-21 09:09 51.41667 17.91679 35212 ft 443 kts 69°
2026-04-21 09:10 51.43793 18.00953 35214 ft 443 kts 69°
2026-04-21 09:10 51.45918 18.10263 35220 ft 445 kts 69°
2026-04-21 09:11 51.48039 18.19601 35205 ft 445 kts 69°
2026-04-21 09:11 51.50138 18.28884 35208 ft 445 kts 69°
2026-04-21 09:12 51.52244 18.38236 35212 ft 445 kts 69°
2026-04-21 09:12 51.54346 18.47608 35198 ft 445 kts 69°
2026-04-21 09:13 51.56426 18.56927 35198 ft 440 kts 69°
2026-04-21 09:13 51.58489 18.66213 35205 ft 441 kts 69°
2026-04-21 09:14 51.60549 18.75523 35198 ft 442 kts 69°
2026-04-21 09:14 51.62592 18.84797 35196 ft 442 kts 70°
2026-04-21 09:15 51.64638 18.94126 35182 ft 442 kts 70°
2026-04-21 09:15 51.66676 19.03459 35176 ft 442 kts 70°
2026-04-21 09:16 51.68707 19.12812 35167 ft 442 kts 70°
2026-04-21 09:16 51.70714 19.22093 35157 ft 437 kts 70°
2026-04-21 09:17 51.72704 19.31342 35158 ft 437 kts 70°
2026-04-21 09:17 51.74678 19.40559 35157 ft 437 kts 70°
2026-04-21 09:18 51.76657 19.49836 35158 ft 437 kts 70°
2026-04-21 09:18 51.78630 19.59130 35161 ft 437 kts 70°
2026-04-21 09:19 51.81182 19.67940 35160 ft 433 kts 52°
2026-04-21 09:19 51.84791 19.75799 35158 ft 435 kts 53°
2026-04-21 09:20 51.88420 19.83666 35176 ft 436 kts 53°
2026-04-21 09:20 51.92067 19.91536 35172 ft 438 kts 53°
2026-04-21 09:21 51.95702 19.99399 35171 ft 439 kts 53°
2026-04-21 09:21 51.99357 20.07328 35171 ft 439 kts 53°
2026-04-21 09:22 52.02996 20.15248 35169 ft 435 kts 53°
2026-04-21 09:22 52.06595 20.23103 35163 ft 433 kts 53°
2026-04-21 09:23 52.10192 20.30979 35163 ft 434 kts 53°
2026-04-21 09:23 52.13782 20.38861 35162 ft 433 kts 53°
2026-04-21 09:24 52.17368 20.46764 35161 ft 433 kts 53°
2026-04-21 09:24 52.20942 20.54664 35161 ft 432 kts 54°
2026-04-21 09:25 52.24492 20.62533 35170 ft 430 kts 54°
2026-04-21 09:25 52.27487 20.70960 35201 ft 430 kts 63°
2026-04-21 09:26 52.30143 20.79760 35158 ft 432 kts 64°
2026-04-21 09:26 52.32773 20.88552 35153 ft 432 kts 64°
2026-04-21 09:27 52.35406 20.97389 35154 ft 432 kts 64°
2026-04-21 09:27 52.38028 21.06222 35150 ft 429 kts 64°
2026-04-21 09:28 52.40624 21.15002 35150 ft 428 kts 64°
2026-04-21 09:28 52.43215 21.23794 35153 ft 428 kts 64°
2026-04-21 09:29 52.45802 21.32608 35149 ft 429 kts 64°
2026-04-21 09:29 52.48368 21.41374 35151 ft 429 kts 64°
2026-04-21 09:30 52.50961 21.50274 35149 ft 429 kts 64°
2026-04-21 09:30 52.53515 21.59065 35147 ft 428 kts 64°
2026-04-21 09:31 52.56063 21.67869 35138 ft 427 kts 64°
2026-04-21 09:31 52.58608 21.76698 35140 ft 427 kts 64°
2026-04-21 09:32 52.61145 21.85530 35147 ft 427 kts 64°
2026-04-21 09:32 52.63675 21.94370 35145 ft 427 kts 65°
2026-04-21 09:33 52.66186 22.03177 35140 ft 427 kts 65°
2026-04-21 09:33 52.68698 22.12023 35148 ft 425 kts 64°
2026-04-21 09:34 52.71198 22.20856 35141 ft 425 kts 65°
2026-04-21 09:34 52.73694 22.29712 35138 ft 425 kts 64°
2026-04-21 09:35 52.76182 22.38565 35143 ft 425 kts 65°
2026-04-21 09:35 52.78722 22.47389 35142 ft 425 kts 64°
2026-04-21 09:36 52.81265 22.56212 35136 ft 425 kts 64°
2026-04-21 09:36 52.83801 22.65052 35135 ft 424 kts 64°
2026-04-21 09:37 52.86296 22.73781 35134 ft 422 kts 64°
2026-04-21 09:37 52.88803 22.82585 35140 ft 423 kts 64°
2026-04-21 09:38 52.91310 22.91417 35132 ft 425 kts 64°
2026-04-21 09:38 52.93769 23.00326 35130 ft 425 kts 65°
2026-04-21 09:39 52.96216 23.09244 35130 ft 425 kts 65°
2026-04-21 09:39 52.98655 23.18162 35123 ft 424 kts 65°
2026-04-21 09:40 53.01072 23.27036 35125 ft 421 kts 65°
2026-04-21 09:40 53.03478 23.35899 35127 ft 421 kts 65°
2026-04-21 09:41 53.05868 23.44742 35125 ft 421 kts 65°
2026-04-21 09:41 53.08267 23.53648 35144 ft 421 kts 65°
2026-04-21 09:42 53.10661 23.62570 35122 ft 423 kts 65°
2026-04-21 09:42 53.13055 23.71529 35114 ft 424 kts 65°
2026-04-21 09:43 53.15422 23.80424 35120 ft 421 kts 65°
2026-04-21 09:43 53.17799 23.89351 35125 ft 421 kts 64°
2026-04-21 09:44 53.20207 23.98282 35119 ft 421 kts 65°
2026-04-21 09:44 53.22598 24.07198 35126 ft 421 kts 65°
2026-04-21 09:45 53.24987 24.16141 35130 ft 421 kts 65°
2026-04-21 09:45 53.27368 24.25089 35128 ft 421 kts 65°
2026-04-21 09:46 53.29734 24.34014 35126 ft 424 kts 65°
2026-04-21 09:46 53.32119 24.43048 35128 ft 424 kts 65°
2026-04-21 09:47 53.34499 24.52100 35126 ft 425 kts 65°
2026-04-21 09:47 53.36874 24.61168 35122 ft 425 kts 65°
2026-04-21 09:48 53.39242 24.70247 35119 ft 425 kts 65°
2026-04-21 09:48 53.41588 24.79276 35125 ft 425 kts 65°
2026-04-21 09:49 53.43943 24.88378 35116 ft 425 kts 65°
2026-04-21 09:49 53.46290 24.97476 35119 ft 424 kts 65°
2026-04-21 09:50 53.47839 25.03517 35137 ft 425 kts 65°
2026-04-21 09:50 53.50971 25.15777 35122 ft 428 kts 65°
2026-04-21 09:51 53.53312 25.24978 35113 ft 428 kts 65°
2026-04-21 09:51 53.55641 25.34176 35114 ft 428 kts 65°
2026-04-21 09:52 53.57952 25.43337 35109 ft 427 kts 65°
2026-04-21 09:52 53.60261 25.52529 35108 ft 426 kts 66°
2026-04-21 09:53 53.62568 25.61750 35110 ft 427 kts 66°
2026-04-21 09:53 53.64866 25.70973 35110 ft 427 kts 66°
2026-04-21 09:54 53.67158 25.80209 35128 ft 427 kts 66°
2026-04-21 09:54 53.69452 25.89496 35109 ft 430 kts 66°
2026-04-21 09:55 53.71361 25.97254 35106 ft 430 kts 66°
2026-04-21 09:55 53.74019 26.08098 35107 ft 428 kts 66°
2026-04-21 09:56 53.75920 26.15889 35102 ft 428 kts 66°
2026-04-21 09:56 53.78173 26.25160 35104 ft 428 kts 66°
2026-04-21 09:57 53.80434 26.34498 35101 ft 428 kts 66°
2026-04-21 09:57 53.82684 26.43836 35099 ft 428 kts 66°
2026-04-21 09:58 53.84926 26.53180 35098 ft 428 kts 66°
2026-04-21 09:58 53.87164 26.62536 35098 ft 428 kts 66°
2026-04-21 09:59 53.89412 26.71872 35093 ft 427 kts 62°
2026-04-21 09:59 53.92345 26.80626 35096 ft 427 kts 59°
2026-04-21 10:00 53.95291 26.89287 35091 ft 426 kts 58°
2026-04-21 10:00 53.98256 26.98014 35091 ft 426 kts 59°
2026-04-21 10:01 54.01212 27.06747 35092 ft 427 kts 59°
2026-04-21 10:01 54.04167 27.15507 35088 ft 427 kts 59°
2026-04-21 10:02 54.08593 27.28686 35087 ft 427 kts 59°
2026-04-21 10:03 54.11252 27.37674 35093 ft 428 kts 65°
2026-04-21 10:03 54.13691 27.46949 35101 ft 429 kts 64°
2026-04-21 10:04 54.16175 27.56240 35088 ft 430 kts 64°
2026-04-21 10:04 54.18660 27.65538 35085 ft 431 kts 64°
2026-04-21 10:05 54.21149 27.74885 35085 ft 432 kts 64°
2026-04-21 10:05 54.23626 27.84228 35081 ft 432 kts 64°
2026-04-21 10:06 54.26096 27.93585 35086 ft 432 kts 64°
2026-04-21 10:06 54.28559 28.02953 35084 ft 432 kts 64°
2026-04-21 10:07 54.31002 28.12283 35085 ft 432 kts 64°
2026-04-21 10:07 54.33452 28.21681 35081 ft 433 kts 65°
2026-04-21 10:08 54.35902 28.31113 35092 ft 433 kts 65°
2026-04-21 10:08 54.38351 28.40587 35075 ft 435 kts 65°
2026-04-21 10:09 54.40795 28.50078 35068 ft 435 kts 65°
2026-04-21 10:09 54.43237 28.59604 35068 ft 435 kts 65°
2026-04-21 10:10 54.45670 28.69127 35065 ft 435 kts 65°
2026-04-21 10:10 54.48090 28.78631 35065 ft 432 kts 65°
2026-04-21 10:11 54.50709 28.87860 35057 ft 432 kts 63°
2026-04-21 10:11 54.53337 28.97167 35062 ft 432 kts 63°
2026-04-21 10:12 54.55952 29.06498 35057 ft 432 kts 63°
2026-04-21 10:12 54.58562 29.15846 35054 ft 432 kts 63°
2026-04-21 10:13 54.61166 29.25211 35055 ft 435 kts 63°
2026-04-21 10:13 54.63780 29.34654 35054 ft 435 kts 63°
2026-04-21 10:14 54.66370 29.44042 35049 ft 435 kts 63°
2026-04-21 10:14 54.69631 29.52764 35066 ft 433 kts 52°
2026-04-21 10:15 54.73311 29.61047 35039 ft 434 kts 52°
2026-04-21 10:15 54.77008 29.69321 35044 ft 434 kts 52°
2026-04-21 10:16 54.80707 29.77612 35047 ft 434 kts 52°
2026-04-21 10:16 54.84378 29.85867 35047 ft 435 kts 52°
2026-04-21 10:17 54.88066 29.94188 35045 ft 435 kts 52°
2026-04-21 10:17 54.91750 30.02529 35036 ft 435 kts 52°
2026-04-21 10:18 54.95425 30.10878 35034 ft 435 kts 52°
2026-04-21 10:18 54.99095 30.19242 35024 ft 434 kts 52°
2026-04-21 10:19 55.02756 30.27615 35022 ft 435 kts 52°
2026-04-21 10:19 55.06418 30.36020 35022 ft 435 kts 52°
2026-04-21 10:20 55.10077 30.44446 35027 ft 436 kts 52°
2026-04-21 10:20 55.13721 30.52864 35027 ft 438 kts 52°
2026-04-21 10:21 55.17380 30.61348 35024 ft 436 kts 52°
2026-04-21 10:21 55.21026 30.69832 35024 ft 436 kts 52°
2026-04-21 10:22 55.24672 30.78335 35029 ft 436 kts 52°
2026-04-21 10:22 55.28067 30.87056 35002 ft 436 kts 66°
2026-04-21 10:23 55.30065 30.97134 35015 ft 438 kts 69°
2026-04-21 10:23 55.32041 31.07268 35040 ft 440 kts 70°
2026-04-21 10:24 55.33979 31.17450 35031 ft 439 kts 70°
2026-04-21 10:24 55.35904 31.27639 35032 ft 439 kts 70°
2026-04-21 10:25 55.37821 31.37852 35031 ft 439 kts 70°
2026-04-21 10:25 55.39730 31.48080 35038 ft 440 kts 70°
2026-04-21 10:26 55.41634 31.58334 35033 ft 440 kts 71°
2026-04-21 10:26 55.43518 31.68537 35032 ft 441 kts 70°
2026-04-21 10:27 55.45406 31.78820 35031 ft 441 kts 70°
2026-04-21 10:27 55.47290 31.89137 35029 ft 441 kts 71°
2026-04-21 10:28 55.49160 31.99433 35029 ft 441 kts 71°
2026-04-21 10:28 55.51024 32.09753 35027 ft 441 kts 71°
2026-04-21 10:29 55.52875 32.20062 35029 ft 441 kts 71°
2026-04-21 10:29 55.54709 32.30330 35027 ft 441 kts 71°
2026-04-21 10:30 55.56550 32.40698 35033 ft 441 kts 71°
2026-04-21 10:30 55.58382 32.51074 35035 ft 442 kts 71°
2026-04-21 10:31 55.60204 32.61453 35032 ft 442 kts 71°
2026-04-21 10:31 55.62017 32.71845 35031 ft 442 kts 71°
2026-04-21 10:32 55.63824 32.82255 35026 ft 442 kts 72°
2026-04-21 10:32 55.65609 32.92597 35025 ft 442 kts 72°
2026-04-21 10:33 55.67395 33.03009 35027 ft 441 kts 72°
2026-04-21 10:33 55.69174 33.13429 35029 ft 441 kts 72°
2026-04-21 10:34 55.70946 33.23871 35029 ft 442 kts 72°
2026-04-21 10:34 55.72706 33.34345 35029 ft 443 kts 72°
2026-04-21 10:35 55.74462 33.44830 35026 ft 444 kts 72°
2026-04-21 10:35 55.76210 33.55324 35010 ft 443 kts 72°
2026-04-21 10:36 55.77936 33.65751 35006 ft 443 kts 72°
2026-04-21 10:36 55.79665 33.76261 35010 ft 443 kts 72°
2026-04-21 10:37 55.81385 33.86779 35015 ft 443 kts 72°
2026-04-21 10:37 55.83096 33.97309 35011 ft 443 kts 72°
2026-04-21 10:38 55.84796 34.07841 35023 ft 443 kts 72°
2026-04-21 10:38 55.86490 34.18395 35010 ft 444 kts 72°
2026-04-21 10:39 55.88180 34.28974 34999 ft 444 kts 72°
2026-04-21 10:39 55.89272 34.39746 34997 ft 444 kts 88°
2026-04-21 10:40 55.89510 34.50791 34990 ft 446 kts 85°
2026-04-21 10:40 55.89725 34.61858 34993 ft 447 kts 85°
2026-04-21 10:41 55.89888 34.71058 34993 ft 447 kts 87°
2026-04-21 10:41 55.90104 34.83919 34998 ft 447 kts 86°
2026-04-21 10:42 55.90252 34.93223 34976 ft 448 kts 86°
2026-04-21 10:42 55.90420 35.04271 34982 ft 447 kts 86°
2026-04-21 10:43 55.90585 35.15370 34967 ft 448 kts 86°
2026-04-21 10:43 55.90740 35.26481 34966 ft 449 kts 87°
2026-04-21 10:44 55.90886 35.37613 34956 ft 449 kts 87°
2026-04-21 10:44 55.91020 35.48713 34944 ft 448 kts 86°
2026-04-21 10:45 55.91147 35.59830 34949 ft 448 kts 87°
2026-04-21 10:45 55.91261 35.70952 34938 ft 449 kts 86°
2026-04-21 10:46 55.91367 35.82010 34931 ft 449 kts 88°
2026-04-21 10:46 55.91860 35.93055 34936 ft 448 kts 83°
2026-04-21 10:47 55.92364 36.04115 34910 ft 447 kts 84°
2026-04-21 10:47 55.92836 36.15196 34925 ft 448 kts 83°
2026-04-21 10:48 55.93299 36.26300 34934 ft 448 kts 84°
2026-04-21 10:48 55.93752 36.37386 34919 ft 448 kts 84°
2026-04-21 10:49 55.94195 36.48470 34906 ft 449 kts 85°
2026-04-21 10:49 55.94627 36.59560 34886 ft 448 kts 84°
2026-04-21 10:50 55.95048 36.70596 34884 ft 447 kts 84°
2026-04-21 10:50 55.95461 36.81707 34886 ft 447 kts 84°
2026-04-21 10:51 55.95864 36.92821 34872 ft 449 kts 84°
2026-04-21 10:51 55.96257 37.03928 34872 ft 449 kts 85°
2026-04-21 10:52 55.96641 37.15040 34855 ft 448 kts 85°
2026-04-21 10:52 55.97018 37.26156 34848 ft 448 kts 85°
2026-04-21 10:53 55.97369 37.37200 34854 ft 448 kts 85°
2026-04-21 10:53 55.97714 37.48327 34861 ft 448 kts 85°
2026-04-21 10:54 55.98049 37.59437 34852 ft 449 kts 85°
2026-04-21 10:54 55.98375 37.70551 34849 ft 448 kts 85°
2026-04-21 10:55 55.98698 37.81666 34851 ft 449 kts 86°
2026-04-21 10:55 55.99016 37.92832 34839 ft 449 kts 86°
2026-04-21 10:56 55.99323 38.03999 34852 ft 449 kts 86°
2026-04-21 10:56 55.99618 38.15062 34851 ft 450 kts 85°
2026-04-21 10:57 55.99906 38.26221 34842 ft 450 kts 86°
2026-04-21 10:57 56.00183 38.37366 34838 ft 449 kts 86°
2026-04-21 10:58 56.00450 38.48528 34835 ft 449 kts 86°
2026-04-21 10:58 56.00707 38.59704 34845 ft 450 kts 86°
2026-04-21 10:59 56.00955 38.70932 34854 ft 452 kts 86°
2026-04-21 10:59 56.01193 38.82140 34849 ft 452 kts 86°
2026-04-21 11:00 56.01421 38.93358 34845 ft 452 kts 86°
2026-04-21 11:00 56.01639 39.04593 34852 ft 451 kts 87°
2026-04-21 11:01 56.01846 39.15826 34848 ft 451 kts 86°
2026-04-21 11:01 56.02043 39.27051 34852 ft 452 kts 86°
2026-04-21 11:02 56.02320 39.43875 34853 ft 453 kts 87°
2026-04-21 11:02 56.02495 39.55147 34854 ft 454 kts 87°
2026-04-21 11:03 56.02666 39.66439 34859 ft 454 kts 86°
2026-04-21 11:03 56.02842 39.77729 34853 ft 454 kts 86°
2026-04-21 11:04 56.03014 39.89010 34851 ft 454 kts 86°
2026-04-21 11:04 56.03174 40.00313 34853 ft 454 kts 87°
2026-04-21 11:05 56.03323 40.11631 34858 ft 456 kts 88°
2026-04-21 11:05 56.03462 40.22906 34862 ft 456 kts 88°
2026-04-21 11:06 56.03592 40.34261 34856 ft 456 kts 88°
2026-04-21 11:06 56.03712 40.45630 34862 ft 457 kts 88°
2026-04-21 11:07 56.03821 40.57011 34855 ft 457 kts 88°
2026-04-21 11:07 56.03921 40.68386 34862 ft 458 kts 88°
2026-04-21 11:08 56.04007 40.79707 34866 ft 457 kts 88°
2026-04-21 11:08 56.04083 40.91097 34852 ft 457 kts 88°
2026-04-21 11:09 56.04149 41.02486 34858 ft 457 kts 89°
2026-04-21 11:09 56.04204 41.13865 34853 ft 457 kts 88°
2026-04-21 11:10 56.04249 41.25234 34846 ft 458 kts 88°
2026-04-21 11:10 56.04283 41.36632 34847 ft 458 kts 89°
2026-04-21 11:11 56.04306 41.48038 34844 ft 458 kts 88°
2026-04-21 11:11 56.04319 41.59380 34845 ft 458 kts 89°
2026-04-21 11:12 56.04322 41.70784 34824 ft 458 kts 88°
2026-04-21 11:12 56.04315 41.82184 34828 ft 458 kts 89°
2026-04-21 11:13 56.04297 41.93589 34824 ft 458 kts 89°
2026-04-21 11:13 56.04267 42.05005 34823 ft 458 kts 89°
2026-04-21 11:14 56.04228 42.16418 34818 ft 460 kts 88°
2026-04-21 11:14 56.04178 42.27861 34805 ft 460 kts 89°
2026-04-21 11:15 56.04119 42.39311 34805 ft 461 kts 89°
2026-04-21 11:15 56.04051 42.50765 34806 ft 461 kts 89°
2026-04-21 11:16 56.03913 42.62238 34784 ft 461 kts 90°
2026-04-21 11:16 56.03774 42.73628 34785 ft 461 kts 90°
2026-04-21 11:17 56.03622 42.85090 34788 ft 461 kts 90°
2026-04-21 11:17 56.03462 42.96551 34773 ft 461 kts 90°
2026-04-21 11:18 56.03289 43.08034 34775 ft 462 kts 90°
2026-04-21 11:18 56.03106 43.19528 34773 ft 462 kts 91°
2026-04-21 11:19 56.02913 43.31004 34753 ft 462 kts 90°
2026-04-21 11:19 56.03464 43.42395 34774 ft 461 kts 82°
2026-04-21 11:20 56.04228 43.53753 34749 ft 460 kts 82°
2026-04-21 11:20 56.04994 43.65131 34742 ft 460 kts 82°
2026-04-21 11:21 56.05748 43.76504 34751 ft 460 kts 82°
2026-04-21 11:21 56.06490 43.87883 34745 ft 460 kts 82°
2026-04-21 11:22 56.07221 43.99227 34739 ft 463 kts 82°
2026-04-21 11:22 56.07948 44.10688 34723 ft 463 kts 81°
2026-04-21 11:23 56.08665 44.22147 34724 ft 463 kts 82°
2026-04-21 11:23 56.09370 44.33606 34712 ft 463 kts 82°
2026-04-21 11:24 56.10064 44.45060 34710 ft 463 kts 83°
2026-04-21 11:24 56.10750 44.56546 34706 ft 464 kts 82°
2026-04-21 11:25 56.11234 44.67983 34690 ft 464 kts 91°
2026-04-21 11:25 56.11003 44.79565 34690 ft 465 kts 90°
2026-04-21 11:26 56.10809 44.89226 34698 ft 468 kts 91°
2026-04-21 11:26 56.10559 45.00901 34686 ft 468 kts 91°
2026-04-21 11:27 56.10288 45.12542 34680 ft 468 kts 91°
2026-04-21 11:27 56.10019 45.24191 34682 ft 468 kts 91°
2026-04-21 11:28 56.09738 45.35831 34673 ft 468 kts 91°
2026-04-21 11:28 56.09445 45.47495 34673 ft 468 kts 91°
2026-04-21 11:29 56.09142 45.59146 34672 ft 468 kts 91°
2026-04-21 11:29 56.08827 45.70808 34666 ft 470 kts 91°
2026-04-21 11:30 56.08500 45.82488 34661 ft 470 kts 91°
2026-04-21 11:30 56.08162 45.94179 34656 ft 470 kts 92°
2026-04-21 11:31 56.07815 46.05791 34663 ft 469 kts 92°
2026-04-21 11:31 56.07456 46.17462 34653 ft 469 kts 92°
2026-04-21 11:32 56.07085 46.29157 34644 ft 470 kts 92°
2026-04-21 11:32 56.06704 46.40834 34642 ft 471 kts 93°
2026-04-21 11:33 56.06085 46.52441 34605 ft 472 kts 106°
2026-04-21 11:33 56.03822 46.63450 34607 ft 473 kts 110°
2026-04-21 11:34 56.02125 46.74800 34628 ft 473 kts 103°
2026-04-21 11:34 56.00543 46.86202 34625 ft 473 kts 104°
2026-04-21 11:35 55.98905 46.97583 34613 ft 472 kts 104°
2026-04-21 11:35 55.97248 47.08971 34619 ft 473 kts 104°
2026-04-21 11:36 55.95583 47.20335 34637 ft 473 kts 104°
2026-04-21 11:36 55.93909 47.31683 34631 ft 473 kts 104°
2026-04-21 11:37 55.92235 47.42945 34624 ft 472 kts 105°
2026-04-21 11:37 55.90541 47.54271 34625 ft 472 kts 105°
2026-04-21 11:38 55.88835 47.65598 34619 ft 474 kts 105°
2026-04-21 11:38 55.87110 47.76957 34607 ft 476 kts 105°
2026-04-21 11:39 55.85377 47.88305 34599 ft 475 kts 105°
2026-04-21 11:39 55.83634 47.99637 34600 ft 474 kts 105°
2026-04-21 11:40 55.81877 48.10978 34604 ft 475 kts 106°
2026-04-21 11:40 55.80125 48.22209 34596 ft 474 kts 107°
2026-04-21 11:41 55.78354 48.33494 34598 ft 475 kts 107°
2026-04-21 11:41 55.76566 48.44811 34598 ft 475 kts 106°
2026-04-21 11:42 55.74765 48.56120 34605 ft 476 kts 106°
2026-04-21 11:42 55.72955 48.67419 34604 ft 476 kts 106°
2026-04-21 11:43 55.71146 48.78637 34608 ft 475 kts 107°
2026-04-21 11:43 55.69316 48.89909 34617 ft 477 kts 108°
2026-04-21 11:44 55.67468 49.01222 34628 ft 478 kts 107°
2026-04-21 11:44 55.65609 49.12520 34636 ft 478 kts 108°
2026-04-21 11:45 55.63739 49.23819 34795 ft 478 kts 108°
2026-04-21 11:45 55.62802 49.29449 35061 ft 477 kts 107°
2026-04-21 11:45 55.61863 49.35075 35314 ft 477 kts 108°
2026-04-21 11:46 55.60920 49.40707 35522 ft 478 kts 108°
2026-04-21 11:46 55.59975 49.46338 35763 ft 478 kts 108°
2026-04-21 11:46 55.59024 49.51983 35942 ft 479 kts 108°
2026-04-21 11:46 55.58068 49.57630 36148 ft 479 kts 108°
2026-04-21 11:47 55.57111 49.63275 36404 ft 479 kts 108°
2026-04-21 11:47 55.56152 49.68912 36589 ft 478 kts 108°
2026-04-21 11:47 55.54224 49.80192 36616 ft 479 kts 109°
2026-04-21 11:48 55.52301 49.91370 36628 ft 479 kts 109°
2026-04-21 11:48 55.50357 50.02600 36631 ft 479 kts 109°
2026-04-21 11:49 55.48402 50.13819 36628 ft 479 kts 109°
2026-04-21 11:49 55.46436 50.25036 36630 ft 478 kts 109°
2026-04-21 11:50 55.44462 50.36227 36645 ft 477 kts 109°
2026-04-21 11:50 55.42482 50.47385 36631 ft 478 kts 109°
2026-04-21 11:51 55.40489 50.58546 36633 ft 478 kts 109°
2026-04-21 11:51 55.38486 50.69697 36635 ft 478 kts 110°
2026-04-21 11:52 55.36471 50.80847 36637 ft 478 kts 110°
2026-04-21 11:52 55.34444 50.91995 36647 ft 479 kts 110°
2026-04-21 11:53 55.32420 51.03053 36644 ft 479 kts 110°
2026-04-21 11:53 55.30374 51.14174 36646 ft 478 kts 110°
2026-04-21 11:54 55.28318 51.25279 36634 ft 478 kts 110°
2026-04-21 11:54 55.26248 51.36392 36651 ft 479 kts 111°
2026-04-21 11:55 55.24170 51.47489 36646 ft 479 kts 111°
2026-04-21 11:55 55.22084 51.58559 36654 ft 479 kts 111°
2026-04-21 11:56 55.19986 51.69635 36653 ft 479 kts 111°
2026-04-21 11:56 55.17875 51.80705 36652 ft 479 kts 111°
2026-04-21 11:57 55.15757 51.91746 36664 ft 478 kts 111°
2026-04-21 11:57 55.13632 52.02766 36662 ft 478 kts 111°
2026-04-21 11:58 55.11496 52.13778 36671 ft 479 kts 111°
2026-04-21 11:58 55.09361 52.24723 36673 ft 478 kts 111°
2026-04-21 11:59 55.07205 52.35713 36677 ft 478 kts 112°
2026-04-21 11:59 55.05044 52.46667 36674 ft 477 kts 112°
2026-04-21 12:00 55.02873 52.57612 36689 ft 478 kts 112°
2026-04-21 12:00 55.00691 52.68547 36690 ft 478 kts 112°
2026-04-21 12:01 54.98498 52.79475 36687 ft 477 kts 112°
2026-04-21 12:01 54.96299 52.90378 36688 ft 477 kts 112°
2026-04-21 12:02 54.92989 53.06671 36692 ft 479 kts 112°
2026-04-21 12:03 54.90754 53.17599 36690 ft 479 kts 113°
2026-04-21 12:03 54.88512 53.28502 36700 ft 479 kts 113°
2026-04-21 12:04 54.86258 53.39399 36704 ft 479 kts 113°
2026-04-21 12:04 54.83998 53.50271 36713 ft 478 kts 113°
2026-04-21 12:05 54.81725 53.61146 36705 ft 480 kts 114°
2026-04-21 12:05 54.79447 53.71984 36712 ft 482 kts 114°
2026-04-21 12:06 54.77145 53.82879 36711 ft 481 kts 114°
2026-04-21 12:06 54.74833 53.93761 36719 ft 482 kts 114°
2026-04-21 12:07 54.72509 54.04645 36715 ft 481 kts 114°
2026-04-21 12:07 54.70177 54.15505 36710 ft 482 kts 115°
2026-04-21 12:08 54.67829 54.26383 36723 ft 483 kts 115°
2026-04-21 12:08 54.65467 54.37265 36719 ft 483 kts 115°
2026-04-21 12:09 54.63119 54.48029 36728 ft 482 kts 115°
2026-04-21 12:09 54.60746 54.58852 36726 ft 482 kts 115°
2026-04-21 12:10 54.58363 54.69662 36707 ft 482 kts 115°
2026-04-21 12:10 54.55972 54.80451 36725 ft 482 kts 116°
2026-04-21 12:11 54.53573 54.91225 36732 ft 482 kts 116°
2026-04-21 12:11 54.51162 55.01991 36731 ft 481 kts 116°
2026-04-21 12:12 54.48744 55.12737 36735 ft 482 kts 116°
2026-04-21 12:12 54.46726 55.21660 36727 ft 481 kts 116°
2026-04-21 12:13 54.43900 55.34100 36731 ft 479 kts 116°
2026-04-21 12:13 54.41872 55.42975 36727 ft 479 kts 116°
2026-04-21 12:14 54.39424 55.53643 36723 ft 479 kts 116°
2026-04-21 12:14 54.36969 55.64288 36732 ft 479 kts 116°
2026-04-21 12:15 54.34508 55.74907 36734 ft 479 kts 117°
2026-04-21 12:15 54.32049 55.85467 36733 ft 479 kts 117°
2026-04-21 12:16 54.29565 55.96079 36740 ft 479 kts 117°
2026-04-21 12:16 54.27075 56.06665 36737 ft 479 kts 117°
2026-04-21 12:17 54.24573 56.17247 36750 ft 479 kts 117°
2026-04-21 12:17 54.22066 56.27800 36749 ft 479 kts 117°
2026-04-21 12:18 54.19557 56.38311 36719 ft 477 kts 117°
2026-04-21 12:18 54.17059 56.48726 36738 ft 477 kts 117°
2026-04-21 12:19 54.14531 56.59212 36744 ft 477 kts 117°
2026-04-21 12:19 54.11998 56.69671 36737 ft 477 kts 117°
2026-04-21 12:20 54.09456 56.80117 36740 ft 477 kts 118°
2026-04-21 12:20 54.06905 56.90547 36710 ft 477 kts 118°
2026-04-21 12:21 54.04343 57.00976 36736 ft 478 kts 118°
2026-04-21 12:21 54.01790 57.11318 36736 ft 477 kts 118°
2026-04-21 12:22 53.99211 57.21716 36726 ft 477 kts 118°
2026-04-21 12:22 53.96620 57.32114 36729 ft 478 kts 118°
2026-04-21 12:23 53.94015 57.42518 36694 ft 478 kts 118°
2026-04-21 12:23 53.91396 57.52931 36727 ft 481 kts 118°
2026-04-21 12:24 53.88759 57.63364 36713 ft 480 kts 118°
2026-04-21 12:24 53.86119 57.73761 36712 ft 480 kts 118°
2026-04-21 12:25 53.83469 57.84148 36704 ft 481 kts 118°
2026-04-21 12:25 53.80810 57.94525 36683 ft 481 kts 118°
2026-04-21 12:26 53.78139 58.04897 36703 ft 482 kts 118°
2026-04-21 12:26 53.75744 58.15478 36680 ft 488 kts 104°
2026-04-21 12:27 53.74653 58.26764 36665 ft 489 kts 104°
2026-04-21 12:27 53.73439 58.38092 36708 ft 490 kts 104°
2026-04-21 12:28 53.72216 58.49418 36684 ft 489 kts 104°
2026-04-21 12:28 53.70990 58.60679 36648 ft 490 kts 105°
2026-04-21 12:29 53.69752 58.71940 36684 ft 487 kts 105°
2026-04-21 12:29 53.68503 58.83197 36676 ft 488 kts 105°
2026-04-21 12:30 53.67246 58.94423 36675 ft 486 kts 105°
2026-04-21 12:30 53.65981 59.05629 36674 ft 486 kts 105°
2026-04-21 12:31 53.64705 59.16824 36677 ft 486 kts 105°
2026-04-21 12:31 53.63429 59.27925 36677 ft 486 kts 105°
2026-04-21 12:32 53.62133 59.39107 36671 ft 486 kts 106°
2026-04-21 12:32 53.60826 59.50280 36682 ft 486 kts 106°
2026-04-21 12:33 53.59510 59.61442 36660 ft 486 kts 106°
2026-04-21 12:33 53.58178 59.72642 36675 ft 487 kts 106°
2026-04-21 12:34 53.56838 59.83807 36684 ft 487 kts 106°
2026-04-21 12:34 53.55488 59.94969 36679 ft 487 kts 106°
2026-04-21 12:35 53.54135 60.06059 36657 ft 487 kts 107°
2026-04-21 12:35 53.52764 60.17216 36685 ft 487 kts 107°
2026-04-21 12:36 53.51381 60.28366 36669 ft 487 kts 107°
2026-04-21 12:36 53.49988 60.39514 36687 ft 488 kts 107°
2026-04-21 12:37 53.48580 60.50685 36686 ft 487 kts 107°
2026-04-21 12:37 53.47168 60.61804 36691 ft 487 kts 107°
2026-04-21 12:38 53.45744 60.72917 36693 ft 487 kts 107°
2026-04-21 12:38 53.44307 60.84052 36693 ft 488 kts 107°
2026-04-21 12:39 53.42863 60.95177 36697 ft 488 kts 107°
2026-04-21 12:39 53.41409 61.06306 36701 ft 490 kts 107°
2026-04-21 12:40 53.40059 61.17449 36697 ft 493 kts 103°
2026-04-21 12:40 53.38289 61.28338 36736 ft 483 kts 114°
2026-04-21 12:41 53.36313 61.39160 36716 ft 486 kts 112°
2026-04-21 12:41 53.34383 61.50034 36704 ft 487 kts 112°
2026-04-21 12:42 53.32448 61.60922 36718 ft 488 kts 112°
2026-04-21 12:42 53.30504 61.71789 36716 ft 488 kts 112°
2026-04-21 12:43 53.28547 61.82669 36718 ft 488 kts 112°
2026-04-21 12:43 53.26580 61.93535 36725 ft 488 kts 112°
2026-04-21 12:44 53.24619 62.04306 36730 ft 488 kts 112°
2026-04-21 12:44 53.22635 62.15144 36727 ft 488 kts 112°
2026-04-21 12:45 53.20643 62.25957 36732 ft 487 kts 112°
2026-04-21 12:45 53.18639 62.36773 36732 ft 488 kts 112°
2026-04-21 12:46 53.16629 62.47558 36728 ft 488 kts 112°
2026-04-21 12:46 53.14602 62.58375 36732 ft 488 kts 113°
2026-04-21 12:47 53.12569 62.69158 36724 ft 488 kts 113°
2026-04-21 12:47 53.10539 62.79865 36739 ft 488 kts 113°
2026-04-21 12:48 53.08486 62.90628 36735 ft 488 kts 113°
2026-04-21 12:48 53.06424 63.01382 36740 ft 488 kts 113°
2026-04-21 12:49 53.04354 63.12116 36745 ft 488 kts 113°
2026-04-21 12:49 53.02272 63.22853 36739 ft 487 kts 114°
2026-04-21 12:50 53.00181 63.33577 36707 ft 488 kts 114°
2026-04-21 12:50 52.98083 63.44274 36741 ft 488 kts 114°
2026-04-21 12:51 52.95970 63.54985 36739 ft 488 kts 114°
2026-04-21 12:51 52.93853 63.65662 36735 ft 488 kts 114°
2026-04-21 12:52 52.91726 63.76333 36745 ft 488 kts 114°
2026-04-21 12:52 52.89586 63.87009 36732 ft 487 kts 114°
2026-04-21 12:53 52.87439 63.97659 36709 ft 488 kts 114°
2026-04-21 12:53 52.85283 64.08298 36735 ft 488 kts 114°
2026-04-21 12:54 52.83130 64.18862 36742 ft 487 kts 114°
2026-04-21 12:54 52.80951 64.29502 36746 ft 487 kts 114°
2026-04-21 12:55 52.78769 64.40098 36745 ft 487 kts 114°
2026-04-21 12:55 52.76573 64.50703 36741 ft 487 kts 114°
2026-04-21 12:56 52.74365 64.61313 36724 ft 488 kts 114°
2026-04-21 12:56 52.72160 64.71845 36746 ft 489 kts 114°
2026-04-21 12:57 52.69936 64.82422 36746 ft 488 kts 114°
2026-04-21 12:57 52.67698 64.93003 36747 ft 488 kts 114°
2026-04-21 12:58 52.65833 65.01783 36755 ft 488 kts 114°
2026-04-21 12:58 52.63575 65.12355 36754 ft 488 kts 114°
2026-04-21 12:59 52.61316 65.22886 36744 ft 488 kts 114°
2026-04-21 12:59 52.59046 65.33407 36752 ft 489 kts 114°
2026-04-21 13:00 52.56763 65.43935 36759 ft 489 kts 114°
2026-04-21 13:00 52.54481 65.54420 36788 ft 487 kts 115°
2026-04-21 13:01 52.52184 65.64898 36753 ft 487 kts 115°
2026-04-21 13:01 52.49874 65.75390 36747 ft 488 kts 115°
2026-04-21 13:02 52.47554 65.85874 36767 ft 488 kts 115°
2026-04-21 13:02 52.44074 66.01505 36770 ft 489 kts 114°
2026-04-21 13:03 52.41730 66.11965 36773 ft 489 kts 114°
2026-04-21 13:03 52.39378 66.22411 36773 ft 488 kts 114°
2026-04-21 13:04 52.37016 66.32848 36773 ft 489 kts 115°
2026-04-21 13:04 52.34646 66.43271 36760 ft 488 kts 114°
2026-04-21 13:05 52.32270 66.53663 36776 ft 488 kts 114°
2026-04-21 13:05 52.29889 66.64033 36782 ft 487 kts 114°
2026-04-21 13:06 52.27498 66.74394 36781 ft 488 kts 114°
2026-04-21 13:06 52.25108 66.84697 36774 ft 487 kts 114°
2026-04-21 13:07 52.22700 66.95031 36783 ft 488 kts 115°
2026-04-21 13:07 52.20284 67.05355 36790 ft 487 kts 114°
2026-04-21 13:08 52.17855 67.15674 36776 ft 487 kts 115°
2026-04-21 13:08 52.15422 67.25965 36783 ft 487 kts 115°
2026-04-21 13:09 52.12974 67.36266 36790 ft 487 kts 114°
2026-04-21 13:09 52.10523 67.46536 36788 ft 487 kts 114°
2026-04-21 13:10 52.08076 67.56739 36765 ft 487 kts 114°
2026-04-21 13:10 52.05608 67.66984 36785 ft 486 kts 114°
2026-04-21 13:11 52.03132 67.77212 36788 ft 486 kts 114°
2026-04-21 13:11 52.00650 67.87415 36788 ft 486 kts 115°
2026-04-21 13:12 51.98156 67.97627 36790 ft 486 kts 114°
2026-04-21 13:12 51.95658 68.07800 36784 ft 484 kts 115°
2026-04-21 13:13 51.93154 68.17953 36791 ft 485 kts 115°
2026-04-21 13:13 51.90640 68.28097 36790 ft 485 kts 115°
2026-04-21 13:14 51.88135 68.38161 36793 ft 485 kts 115°
2026-04-21 13:14 51.85608 68.48272 36791 ft 484 kts 115°
2026-04-21 13:15 51.83069 68.58382 36789 ft 485 kts 115°
2026-04-21 13:15 51.80523 68.68470 36789 ft 484 kts 115°
2026-04-21 13:16 51.77974 68.78531 36791 ft 483 kts 115°
2026-04-21 13:16 51.75430 68.88522 36793 ft 483 kts 115°
2026-04-21 13:17 51.72866 68.98548 36803 ft 483 kts 115°
2026-04-21 13:17 51.70288 69.08587 36795 ft 483 kts 115°
2026-04-21 13:18 51.67719 69.18544 36652 ft 483 kts 115°
2026-04-21 13:18 51.66411 69.23595 36402 ft 482 kts 115°
2026-04-21 13:18 51.65120 69.28573 36153 ft 481 kts 115°
2026-04-21 13:19 51.63848 69.33465 35863 ft 480 kts 115°
2026-04-21 13:19 51.62557 69.38421 35597 ft 480 kts 115°
2026-04-21 13:19 51.61266 69.43362 35343 ft 479 kts 115°
2026-04-21 13:19 51.59971 69.48311 35087 ft 479 kts 115°
2026-04-21 13:20 51.58675 69.53253 34827 ft 479 kts 115°
2026-04-21 13:20 51.57377 69.58191 34573 ft 479 kts 115°
2026-04-21 13:20 51.56079 69.63117 34314 ft 479 kts 115°
2026-04-21 13:20 51.54779 69.68045 34072 ft 478 kts 115°
2026-04-21 13:21 51.53479 69.72958 33833 ft 478 kts 115°
2026-04-21 13:21 51.52178 69.77865 33532 ft 476 kts 115°
2026-04-21 13:21 51.50901 69.82671 32942 ft 471 kts 115°
2026-04-21 13:21 51.49596 69.87573 32113 ft 469 kts 115°
2026-04-21 13:22 51.48548 69.92467 31296 ft 463 kts 103°
2026-04-21 13:22 51.48121 69.97516 30681 ft 461 kts 98°
2026-04-21 13:22 51.47732 70.02595 30207 ft 456 kts 98°
2026-04-21 13:22 51.47352 70.07646 29565 ft 456 kts 98°
2026-04-21 13:23 51.46977 70.12703 28770 ft 457 kts 98°
2026-04-21 13:23 51.46603 70.17762 28149 ft 455 kts 98°
2026-04-21 13:23 51.46231 70.22780 27517 ft 453 kts 98°
2026-04-21 13:23 51.45856 70.27799 26865 ft 452 kts 97°
2026-04-21 13:24 51.45485 70.32750 26212 ft 442 kts 97°
2026-04-21 13:24 51.45121 70.37579 25609 ft 431 kts 97°
2026-04-21 13:24 51.44764 70.42288 25016 ft 422 kts 97°
2026-04-21 13:24 51.44407 70.46955 24407 ft 420 kts 97°
2026-04-21 13:25 51.44048 70.51583 23780 ft 415 kts 97°
2026-04-21 13:25 51.43692 70.56186 23151 ft 412 kts 97°
2026-04-21 13:25 51.43344 70.60737 22510 ft 408 kts 97°
2026-04-21 13:25 51.43002 70.65148 21937 ft 401 kts 97°
2026-04-21 13:26 51.42654 70.69584 21375 ft 401 kts 97°
2026-04-21 13:26 51.42310 70.73987 20800 ft 396 kts 97°
2026-04-21 13:26 51.41963 70.78357 20187 ft 395 kts 97°
2026-04-21 13:26 51.41620 70.82693 19695 ft 388 kts 97°
2026-04-21 13:27 51.41275 70.87001 19118 ft 391 kts 97°
2026-04-21 13:27 51.40926 70.91335 18549 ft 394 kts 97°
2026-04-21 13:27 51.40578 70.95683 17977 ft 394 kts 97°
2026-04-21 13:27 51.40225 71.00043 17367 ft 391 kts 97°
2026-04-21 13:28 51.39876 71.04297 16809 ft 379 kts 97°
2026-04-21 13:28 51.39539 71.08427 16275 ft 368 kts 98°
2026-04-21 13:28 51.39210 71.12445 15758 ft 358 kts 98°
2026-04-21 13:28 51.38883 71.16378 15159 ft 354 kts 98°
2026-04-21 13:29 51.38560 71.20260 14693 ft 350 kts 99°
2026-04-21 13:29 51.38238 71.24109 14204 ft 346 kts 99°
2026-04-21 13:29 51.37921 71.27898 13726 ft 341 kts 100°
2026-04-21 13:29 51.37613 71.31568 13189 ft 332 kts 100°
2026-04-21 13:30 51.37316 71.35232 12682 ft 323 kts 96°
2026-04-21 13:30 51.37541 71.38716 12199 ft 318 kts 73°
2026-04-21 13:30 51.38584 71.41769 11770 ft 311 kts 51°
2026-04-21 13:30 51.39988 71.44331 11451 ft 299 kts 48°
2026-04-21 13:31 51.41365 71.46769 11273 ft 294 kts 48°
2026-04-21 13:31 51.42735 71.49206 11115 ft 294 kts 48°
2026-04-21 13:31 51.44088 71.51632 10952 ft 290 kts 48°
2026-04-21 13:31 51.45422 71.54032 10683 ft 288 kts 48°
2026-04-21 13:32 51.46746 71.56434 10387 ft 286 kts 48°
2026-04-21 13:32 51.48053 71.58828 10092 ft 285 kts 48°
2026-04-21 13:32 51.49356 71.61218 9787 ft 284 kts 48°
2026-04-21 13:32 51.50647 71.63601 9461 ft 282 kts 48°
2026-04-21 13:33 51.51924 71.65954 9119 ft 279 kts 48°
2026-04-21 13:33 51.53205 71.68300 8785 ft 279 kts 48°
2026-04-21 13:33 51.54493 71.70649 8378 ft 282 kts 49°
2026-04-21 13:33 51.55777 71.72971 8085 ft 272 kts 48°
2026-04-21 13:34 51.57011 71.75198 7804 ft 263 kts 48°
2026-04-21 13:34 51.58140 71.77409 7739 ft 252 kts 62°
2026-04-21 13:34 51.58538 71.80156 7712 ft 260 kts 98°
2026-04-21 13:34 51.57881 71.82860 7721 ft 263 kts 130°
2026-04-21 13:35 51.56525 71.84756 7734 ft 264 kts 154°
2026-04-21 13:35 51.54782 71.85553 7732 ft 262 kts 181°
2026-04-21 13:35 51.53008 71.84979 7751 ft 262 kts 198°
2026-04-21 13:35 51.51217 71.84395 7763 ft 264 kts 189°
2026-04-21 13:36 51.49399 71.83977 7736 ft 263 kts 190°
2026-04-21 13:36 51.47592 71.83524 7664 ft 263 kts 190°
2026-04-21 13:36 51.45788 71.83060 7606 ft 263 kts 190°
2026-04-21 13:36 51.43978 71.82581 7553 ft 263 kts 191°
2026-04-21 13:37 51.42178 71.82102 7389 ft 261 kts 191°
2026-04-21 13:37 51.40390 71.81617 7336 ft 261 kts 190°
2026-04-21 13:37 51.38598 71.81134 7274 ft 262 kts 190°
2026-04-21 13:37 51.36801 71.80649 7220 ft 261 kts 190°
2026-04-21 13:38 51.35012 71.80166 7151 ft 261 kts 190°
2026-04-21 13:38 51.33225 71.79681 7081 ft 260 kts 191°
2026-04-21 13:38 51.31440 71.79201 6942 ft 259 kts 190°
2026-04-21 13:38 51.29698 71.78722 6726 ft 248 kts 190°
2026-04-21 13:39 51.28055 71.78272 6617 ft 231 kts 190°
2026-04-21 13:39 51.26501 71.77855 6498 ft 224 kts 190°
2026-04-21 13:39 51.24975 71.77448 6365 ft 222 kts 190°
2026-04-21 13:39 51.23444 71.77046 6218 ft 224 kts 190°
2026-04-21 13:40 51.21937 71.76593 5972 ft 222 kts 199°
2026-04-21 13:40 51.20612 71.75418 5632 ft 218 kts 220°
2026-04-21 13:40 51.19523 71.73735 5409 ft 218 kts 225°
2026-04-21 13:40 51.18446 71.72021 5226 ft 217 kts 224°
2026-04-21 13:41 51.17383 71.70347 5006 ft 213 kts 223°
2026-04-21 13:41 51.16348 71.68701 4728 ft 206 kts 224°
2026-04-21 13:41 51.15352 71.67126 4459 ft 199 kts 223°
2026-04-21 13:41 51.14406 71.65648 4276 ft 185 kts 224°
2026-04-21 13:42 51.13507 71.64230 3984 ft 177 kts 222°
2026-04-21 13:42 51.12657 71.62908 3745 ft 164 kts 223°
2026-04-21 13:42 51.11860 71.61650 3529 ft 160 kts 224°
2026-04-21 13:42 51.11083 71.60433 3364 ft 153 kts 222°
2026-04-21 13:43 51.10587 71.59657 3212 ft 149 kts 223°
2026-04-21 13:43 51.09852 71.58507 2992 ft 148 kts 222°
2026-04-21 13:43 51.09120 71.57359 2805 ft 148 kts 222°
2026-04-21 13:43 51.08391 71.56214 2603 ft 147 kts 222°
2026-04-21 13:44 51.07664 71.55076 2411 ft 146 kts 223°
2026-04-21 13:44 51.06942 71.53945 2206 ft 146 kts 222°
2026-04-21 13:44 51.06205 71.52794 2007 ft 149 kts 223°
2026-04-21 13:44 51.05465 71.51641 1836 ft 149 kts 222°
2026-04-21 13:45 51.04689 71.50466 1589 ft 158 kts 224°
2026-04-21 13:45 51.03906 71.49227 1359 ft 160 kts 225°
2026-04-21 13:45 51.03114 71.47979 1180 ft 155 kts 225°
2026-04-21 13:45 51.02444 71.46924 1170 ft 105 kts 224°
2026-04-21 13:46 51.02068 71.46336 1166 ft 67 kts 224°
2026-04-21 13:46 51.01822 71.45948 1167 ft 36 kts 225°
2026-04-21 13:46 51.01693 71.45674 1165 ft 18 kts 279°
2026-04-21 13:46 51.01748 71.45567 1166 ft 10 kts 318°
2026-04-21 13:47 51.01759 71.45551 1166 ft 2 kts 319°
2026-04-21 13:47 51.01775 71.45529 1166 ft 3 kts 317°
2026-04-21 13:47 51.01795 71.45503 1164 ft 4 kts 328°
2026-04-21 13:47 51.01846 71.45517 1164 ft 13 kts 41°
2026-04-21 13:48 51.01926 71.45642 1166 ft 17 kts 44°
2026-04-21 13:48 51.02012 71.45778 1165 ft 18 kts 45°
2026-04-21 13:48 51.02100 71.45914 1166 ft 18 kts 44°
2026-04-21 13:48 51.02190 71.46053 1166 ft 18 kts 44°
2026-04-21 13:49 51.02282 71.46197 1164 ft 19 kts 44°
2026-04-21 13:49 51.02323 71.46260 1166 ft 1 kts 44°
2026-04-21 13:49 51.02353 71.46308 1166 ft 13 kts 45°
2026-04-21 13:49 51.02451 71.46460 1166 ft 26 kts 44°
2026-04-21 13:50 51.02586 71.46672 1166 ft 16 kts 45°
2026-04-21 13:50 51.02668 71.46686 1166 ft 13 kts 317°
2026-04-21 13:50 51.02698 71.46565 1166 ft 12 kts 244°
2026-04-21 13:50 51.02688 71.46542 1166 ft 0 kts 238°
2026-04-21 13:51 51.02688 71.46539 1166 ft 1 kts 262°
2026-04-21 13:51 51.02693 71.46534 1166 ft 2 kts 326°
2026-04-21 13:51 51.02725 71.46492 1166 ft 3 kts 313°
2026-04-21 13:51 51.02737 71.46473 1166 ft 2 kts 314°
2026-04-21 13:52 51.02744 71.46462 1166 ft 1 kts 314°
2026-04-21 13:52 51.02747 71.46456 1163 ft 0 kts 314°
2026-04-21 13:52 51.02748 71.46455 1166 ft 0 kts 314°